User: anonymous   Login
Location: Mentone
(34.5413°N, 85.5351°W)
Time: 09:06:49
(UTC-05:00)
Language:

Okean O Rocket - Orbit

View from above orbital plane
View from above orbital plane
View from above satellite
View from above satellite

Ground track
Ground track

The orbit data is extracted from the following two-line orbital elements,

1 25861U 99039B   16181.88034838  .00000041  00000-0  12901-4 0  9993
2 25861  98.0545 145.9421 0016700 133.0303 279.6877 14.78328004913723
Epoch (UTC): 29 June 2016 21:07:42
Eccentricity: 0.0016700
inclination: 98.0545°
perigee height: 623 km
apogee height: 646 km
right ascension of ascending node: 145.9421°
argument of perigee: 133.0303°
revolutions per day: 14.78328004
mean anomaly at epoch: 279.6877°
orbit number at epoch: 91372

The dashed part of the orbit path shows where the satellite is in the earth's shadow,  

DLR